STARLINK-1312 (45398 NORAD) Tracking and Keplerian Element Data

This shows tracking and keplerian element data for the satellite.

Feedback or suggestion? Click here.




ElementValue
Catalog45398
NameSTARLINK-1312
Epoch Orbit175
Epoch Day189.91668981
Epoch Year2020
RAAN82.6806
Inclination52.9992
Eccentricity0.0001332
Argument of Perigee103.5724
Mean Anonmoly164.1987
Mean Motion15.05581913
Decay Rate-0.00025601
L11 45398U 20019AQ 20189.91668981 -.00025601 00000-0 -17441-2 0 9994
L22 45398 52.9992 82.6806 0001332 103.5724 164.1987 15.05581913 1755

Live tracking and technical data element details for STARLINK-1312 (NORAD 45398). STARLINK-1312 can be tracked NOW for your location showing map with azimuth and elevation plus other details from your city location.

Track the satellite on the map from your city or location and see movement details for azimuth, elevation, latitude, longitude, range, height, and movement on the map or in text.







IsCatalogInMostPopularTable: catalog: 45398, numindb: 29
Update: records affected: 1



GetName: 45398 STARLINK-1312

Hit Count: updated at: Fri, 10 Jul 2020 04:09:31 GMT